Weather past 2 weeks in Cayenne, French Guiana

Now
75 °F

Mild.


Feels Like: 74 °F
Forecast: 78 / 87 °F
Wind: No wind

Location: Cayenne / Rochambeau

Current Time: Jul 7, 2015 at 11:44:59 PM

Latest Report: Jul 7, 2015 at 11:00 PM


Visibility: N/A

Pressure: 29.95 "Hg

Humidity: 94%

Dew point: 73 °F

Location of CayenneLocation

Historic Weather in Cayenne — Graph

°F

Cayenne temperature yesterday

Maximum temperature yesterday: 90 °F (at 11:30 AM)
Minimum temperature yesterday: 73 °F (at 4:00 AM)
Average temperature yesterday: 80 °F

Past Weeks' High & Low Weather Summary

 TemperatureHumidityPressure
High91 °F (Jul 5, 1:30 PM)100% (Jun 23, 2:00 AM)30.07 "Hg (Jun 23, 2:00 AM)
Low72 °F (Jun 25, 5:30 AM)43% (Jul 6, 2:00 PM)29.83 "Hg (Jul 4, 3:30 PM)
Average80 °F83%29.94 "Hg
* Reported Jun 22 10:00 PM — Jul 7 10:30 PM, Cayenne, Weather by CustomWeather, © 2015

Note: Actual official high and low records may vary slightly from our data, if they occured in-between our weather recording intervals... More about our weather records

Advertising

Cayenne weather history for previous 24 hours

 ConditionsComfort  
Time TempWeatherWind HumidityBarometerVisibility
10:30 PM
Tue, Jul 7
75 °FMild.No wind94%29.92 "HgN/A
10:00 PM77 °FWarm.No wind94%29.92 "HgN/A
9:30 PM77 °FWarm.No wind94%29.92 "HgN/A
9:00 PM77 °FWarm.No wind94%29.92 "HgN/A
8:30 PM77 °FWarm.No wind94%29.89 "HgN/A
8:00 PM77 °FWarm.No wind94%29.89 "HgN/A
7:30 PM77 °FPassing clouds.No wind94%29.89 "HgN/A
6:30 PM77 °FWarm.No wind94%29.86 "HgN/A
6:00 PM79 °FPartly sunny.1 mph89%29.86 "HgN/A
5:30 PM79 °FWarm.No wind89%29.86 "HgN/A
5:00 PM79 °FWarm.No wind89%29.86 "HgN/A
4:30 PM79 °FWarm.No wind84%29.86 "HgN/A
4:00 PM77 °FScattered clouds.5 mph89%29.86 "HgN/A
3:30 PM77 °FRain. Fog.12 mph83%29.86 "Hg2 mi
3:00 PM86 °FWarm.2 mph75%29.86 "HgN/A
2:30 PM82 °FBroken clouds.2 mph84%29.86 "HgN/A
2:00 PM90 °FBroken clouds.10 mph67%29.86 "HgN/A
1:30 PM88 °FScattered clouds.8 mph66%29.86 "HgN/A
1:00 PM86 °FScattered clouds.7 mph70%29.89 "HgN/A
12:30 PM86 °FPartly sunny.6 mph70%29.89 "HgN/A
12:00 PM88 °FPartly sunny.6 mph62%29.89 "HgN/A
11:30 AM86 °FPartly sunny.2 mph75%29.89 "HgN/A
11:00 AM84 °FMostly cloudy.No wind74%29.92 "HgN/A
10:30 AM88 °FMostly cloudy.No wind66%29.92 "HgN/A
10:00 AM86 °FBroken clouds.No wind70%29.92 "HgN/A
9:30 AM82 °FWarm.No wind79%29.92 "HgN/A
9:00 AM81 °FWarm.No wind84%29.92 "HgN/A
8:30 AM77 °FWarm.No wind94%29.89 "HgN/A
8:00 AM77 °FBroken clouds.No wind94%29.92 "HgN/A
7:30 AM75 °FMild.No wind100%29.92 "HgN/A
7:00 AM75 °FLow clouds.No wind94%29.89 "HgN/A
6:30 AM75 °FMild.No wind94%29.89 "HgN/A
6:00 AM75 °FMild.No wind94%29.86 "HgN/A
5:30 AM75 °FMild.No wind94%29.89 "HgN/A
5:00 AM75 °FMild.No wind94%29.89 "HgN/A
4:30 AM75 °FMild.No wind94%29.89 "HgN/A
4:00 AM75 °FMild.No wind94%29.89 "HgN/A
3:30 AM75 °FMild.No wind94%29.89 "HgN/A
3:00 AM75 °FMostly cloudy.No wind94%29.89 "HgN/A
2:30 AM75 °FMild.No wind94%29.89 "HgN/A
2:00 AM75 °FMostly cloudy.No wind94%29.89 "HgN/A
1:30 AM75 °FMild.No wind94%29.89 "HgN/A
1:00 AM75 °FOvercast.No wind94%29.92 "HgN/A
12:30 AM75 °FMostly cloudy.No wind94%29.92 "HgN/A
12:00 AM75 °FMild.No wind94%29.92 "HgN/A
11:30 PM
Mon, Jul 6
75 °FPassing clouds.No wind94%29.92 "HgN/A
11:00 PM75 °FMild.No wind94%29.95 "HgN/A
Weather by CustomWeather, © 2015

See weather overviewHow to use our weather pages